Wetbulb
54.85 51.46 49.68 51.65 53.00 52.98 52.16 50.99 50.29 52.18 56.29 54.70 53.18 52.68 59.48 62.26 63.08 63.66 65.25 65.85 66.19 65.74 66.70 67.15 67.48 67.95 67.58 68.05 68.32 69.17 70.19 71.94 72.36 71.98 72.30 71.11 70.47 70.42 70.61 69.06 69.63 69.58 69.39 68.76
52.85 49.60 52.97 53.46 52.97 51.85 51.61 50.64 50.76 53.61 54.40 54.54 54.23 54.92 58.07 61.46 62.10 63.36 64.26 65.05 65.78 64.88 65.02 65.14 65.66 65.91 65.90 66.23 67.04 67.62 68.06 69.40 69.72 69.70 70.24 70.14 70.37 69.15 69.48 69.35 69.12 68.38 68.49 68.69
50.73 52.36 53.59 51.67 51.08 50.20 50.64 50.31 51.36 51.35 55.08 55.00 54.92 53.39 56.50 60.67 62.70 63.78 64.75 65.40 66.12 64.99 63.90 63.73 63.93 64.07 64.22 64.39 65.08 65.68 66.38 67.14 67.73 68.64 68.79 69.07 68.89 66.67 65.05 65.28 65.36 66.41 66.71 67.10
52.08 54.53 52.30 50.81 49.95 51.06 49.05 52.78 52.25 51.15 52.08 48.79 55.16 47.51 55.26 58.20 59.92 62.25 63.25 64.11 64.67 64.63 64.03 63.45 63.16 62.91 62.73 63.01 64.29 64.93 65.48 65.45 65.65 66.81 66.15 66.20 62.94 61.82 62.41 63.15 64.24 64.73 65.18 64.51
50.99 51.72 51.06 50.37 51.37 52.91 51.83 53.69 52.15 51.84 50.92 50.61 51.31 48.13 50.55 57.54 57.07 59.41 62.15 63.71 64.32 63.84 63.17 62.38 62.44 62.77 62.56 62.78 63.08 63.80 64.03 63.78 64.15 64.49 64.86 62.60 63.25 61.50 61.51 62.04 63.19 64.07 64.36 63.50
53.32 55.18 53.76 53.16 53.82 53.26 54.21 52.16 51.94 51.98 50.25 45.36 49.51 48.71 49.09 53.21 57.22 58.88 61.70 63.30 64.07 63.23 62.28 62.74 63.16 63.01 62.46 62.28 62.53 62.82 63.00 62.97 63.69 63.80 63.94 63.99 63.03 62.13 61.52 61.63 60.79 60.65 61.03 61.38
51.64 52.05 53.88 54.50 51.93 53.59 52.71 51.20 45.79 44.95 45.49 44.35 50.93 48.24 50.08 54.64 55.85 56.00 56.92 62.84 64.01 63.71 61.96 61.79 61.63 61.91 61.89 61.72 61.43 61.96 62.79 62.56 63.22 62.94 62.98 62.94 62.87 62.71 61.89 62.00 60.31 61.26 59.66 60.09
48.64 46.44 52.18 54.16 52.58 51.80 51.90 51.10 46.64 42.09 43.59 46.16 51.21 46.73 51.25 58.10 58.94 58.86 59.20 60.08 63.32 62.84 61.87 61.46 61.41 62.42 62.21 61.94 61.05 61.58 62.15 62.17 62.82 62.84 62.62 63.02 62.13 61.30 60.91 61.87 61.23 60.58 60.33 60.97
48.75 49.03 53.93 53.76 54.36 53.15 51.04 48.90 52.89 48.70 49.59 46.44 48.57 51.15 56.01 57.66 57.08 58.10 58.59 60.60 61.76 61.58 61.34 60.90 61.73 62.69 62.36 62.38 61.67 62.08 62.69 62.47 62.68 62.66 62.63 62.68 62.48 62.47 61.79 62.26 63.18 61.17 62.53 61.35
53.18 48.48 53.01 53.33 54.12 53.62 52.17 54.20 48.60 49.10 42.23 41.36 46.26 47.92 49.08 54.10 54.40 57.34 58.17 59.28 59.83 60.53 60.38 60.82 62.01 62.53 62.67 63.25 63.19 62.44 62.85 62.54 62.68 62.98 62.86 62.38 62.53 62.13 62.59 63.09 62.13 62.31 62.85 62.70
54.26 52.52 51.00 52.77 50.80 49.97 51.42 49.87 51.25 51.22 49.36 44.26 42.96 46.24 54.19 53.49 54.76 56.91 58.80 60.64 60.21 60.27 60.60 61.26 61.70 62.63 63.58 63.58 63.27 62.53 62.17 62.32 62.33 62.45 62.54 62.14 61.93 62.09 62.86 62.47 62.34 62.47 63.01 62.81
54.59 53.04 48.84 50.25 53.84 54.60 54.08 52.65 52.87 47.91 46.85 49.01 47.97 47.50 56.89 56.35 55.81 58.27 58.94 60.51 61.71 61.55 61.86 61.80 61.98 62.69 62.84 62.89 62.66 62.57 62.52 61.92 62.16 62.32 61.94 61.73 62.06 62.15 62.19 62.34 62.79 63.26 62.70 62.92
55.44 51.79 46.75 48.25 52.43 54.28 51.39 52.13 52.40 52.84 52.49 47.69 44.95 46.69 57.07 56.77 56.09 57.07 57.93 59.42 60.98 61.98 62.26 62.56 62.47 62.37 62.39 62.39 62.64 62.34 62.58 62.35 62.36 62.11 61.49 61.50 61.62 61.63 62.93 62.48 62.80 62.80 62.40 62.25
58.25 53.97 50.31 46.15 49.15 51.95 50.58 51.62 52.24 52.17 47.73 47.70 48.18 49.89 53.41 55.25 55.38 56.27 57.91 58.48 59.50 60.89 60.40 61.08 62.04 62.97 63.30 63.05 62.54 62.63 62.37 62.16 61.78 61.32 60.58 60.10 61.48 60.65 60.38 60.50 60.26 59.26 58.03 58.58
56.09 50.96 51.77 51.68 52.02 51.83 50.85 50.81 51.20 49.98 50.59 47.94 49.50 49.72 52.26 54.08 55.63 56.84 57.73 58.02 58.05 58.59 59.96 60.82 62.63 63.23 62.08 62.53 62.36 61.92 61.85 61.11 61.40 60.36 58.59 59.22 59.37 58.75 56.36 56.17 56.75 57.10 54.87 53.76
56.67 51.07 52.64 50.12 51.98 51.71 49.17 50.48 50.61 50.43 50.62 50.73 50.95 50.17 54.53 56.04 56.26 55.81 56.29 56.94 57.26 57.93 59.54 60.55 61.62 62.17 62.21 61.88 61.40 61.91 61.45 60.65 61.97 59.95 58.41 57.56 56.89 58.60 57.15 56.56 56.56 56.53 56.17 55.05
54.20 52.42 50.23 46.71 50.84 50.42 47.34 50.15 50.67 51.04 52.23 51.59 48.18 51.64 54.96 54.47 54.80 55.83 56.55 57.12 57.41 57.67 58.70 59.03 59.61 60.07 60.62 60.85 60.87 61.04 61.61 60.69 59.11 57.70 56.36 56.33 57.04 56.13 55.16 55.61 55.80 55.71 56.07 56.76
53.62 52.59 50.90 46.54 49.18 40.92 50.44 54.08 53.07 51.11 51.94 52.98 52.79 53.70 54.80 54.26 55.70 57.14 58.58 57.76 57.29 58.00 58.68 59.38 59.71 59.83 59.88 60.45 60.47 60.52 59.79 58.03 56.87 57.11 55.33 55.81 55.33 54.51 55.17 54.92 54.36 54.47 53.79 53.54
55.92 53.09 48.35 45.54 44.53 47.94 49.24 51.21 50.66 49.59 49.42 53.30 53.09 54.35 54.56 54.66 56.95 56.85 58.48 58.90 58.52 59.24 59.56 59.65 59.99 59.47 59.35 59.03 59.06 58.36 57.41 56.54 56.14 54.96 54.86 54.80 53.22 53.12 53.47 52.82 52.80 53.92 53.60 52.92
54.70 54.89 49.94 47.35 43.14 40.45 49.46 53.06 55.29 54.35 46.09 54.59 54.76 54.37 54.42 55.49 50.90 53.89 57.90 59.15 59.18 59.65 59.66 58.94 59.12 59.04 58.44 58.18 58.18 56.85 55.68 56.06 53.74 52.90 53.31 53.70 53.62 52.88 51.65 52.10 52.19 51.85 51.40 50.96
48.78 49.65 47.10 45.47 44.86 47.33 53.05 54.01 54.91 44.87 47.16 55.02 55.71 55.54 55.12 54.32 56.04 58.47 58.91 58.73 59.46 59.16 58.81 59.07 58.59 57.42 57.11 57.52 56.53 54.57 54.61 53.10 53.62 53.53 53.56 52.90 51.70 51.22 53.25 52.37 51.92 51.82 51.02 50.89
47.17 45.02 46.30 47.40 44.86 41.86 55.22 54.15 48.92 54.32 56.59 55.73 55.78 56.55 56.57 57.55 57.99 58.35 58.46 58.22 58.04 57.70 57.52 57.79 56.79 56.16 56.13 55.83 55.78 54.45 52.83 53.51 53.51 52.93 51.32 50.80 50.87 50.59 49.77 51.65 51.36 51.87 51.73 50.01
47.46 50.98 47.72 49.82 48.91 56.77 57.02 56.88 58.55 58.65 57.28 56.51 56.74 57.69 57.70 57.25 57.05 57.64 57.44 57.57 57.49 56.98 56.74 56.64 55.11 54.57 54.81 54.61 54.65 52.94 52.38 53.35 52.02 50.85 50.56 51.58 51.19 50.52 49.78 50.38 49.75 49.65 50.15 48.03
53.19 54.79 51.86 52.00 53.74 54.78 56.71 57.85 58.45 58.79 57.78 58.11 58.28 58.33 58.53 57.39 57.37 57.23 57.28 56.98 56.62 56.00 55.28 54.88 54.19 52.71 51.77 52.34 53.22 52.55 51.79 52.52 51.13 50.68 50.73 51.39 50.18 49.23 49.72 48.35 48.29 48.09 47.14 45.42
53.03 54.06 52.10 52.37 54.26 54.89 56.00 57.62 58.01 58.46 58.48 58.14 58.70 58.71 57.46 57.07 56.31 55.95 55.68 56.11 55.42 55.09 54.74 54.29 53.19 52.60 51.07 51.48 51.21 51.58 51.33 51.11 50.36 50.21 51.62 51.23 50.15 48.61 48.80 48.95 49.08 47.79 47.89 44.65
54.35 52.67 48.04 49.11 55.11 54.63 55.49 57.45 58.69 58.00 57.63 58.39 57.73 57.42 57.73 57.04 55.89 56.28 54.85 55.22 54.94 53.84 53.60 53.06 52.19 51.40 51.72 52.05 51.17 51.53 51.89 50.41 50.75 49.77 50.17 48.92 48.86 48.60 47.99 47.79 47.99 40.94 41.62 41.62
MSLP
1005.65 1004.99 1004.01 1003.36 1003.31 1002.64 1002.53 1002.19 1002.34 1002.77 1004.20 1004.74 1004.65 1004.76 1006.07 1007.44 1008.01 1008.66 1009.63 1010.73 1011.62 1012.82 1014.21 1014.86 1015.30 1015.70 1016.11 1016.52 1016.81 1016.89 1016.95 1016.82 1016.53 1016.34 1016.18 1016.77 1016.74 1017.19 1017.42 1018.27 1018.19 1018.02 1017.91 1017.91
1004.94 1004.41 1003.53 1003.55 1003.39 1003.48 1003.62 1003.21 1003.08 1003.98 1004.95 1005.33 1004.58 1005.07 1005.92 1007.05 1007.73 1008.01 1009.11 1010.10 1011.26 1012.98 1014.01 1014.87 1015.35 1015.80 1016.23 1016.69 1017.01 1017.27 1017.41 1017.38 1016.96 1016.82 1017.34 1017.23 1017.06 1017.11 1017.16 1017.42 1018.00 1018.39 1018.11 1017.96
1004.06 1003.23 1003.59 1004.24 1004.12 1004.17 1003.75 1003.51 1003.23 1004.34 1005.00 1005.40 1004.93 1005.04 1005.33 1006.59 1007.38 1007.80 1008.69 1009.63 1010.75 1012.26 1013.49 1014.61 1015.18 1015.65 1016.21 1016.70 1017.07 1017.45 1017.74 1017.83 1017.77 1017.35 1017.20 1017.25 1017.19 1016.95 1017.26 1017.48 1018.02 1018.68 1018.48 1018.31
1003.86 1003.57 1004.43 1004.33 1003.96 1004.19 1003.45 1003.78 1004.20 1004.64 1005.04 1003.85 1004.55 1003.39 1003.98 1005.57 1006.72 1007.65 1008.67 1009.45 1010.55 1011.78 1013.22 1014.25 1014.99 1015.57 1016.12 1016.63 1017.24 1017.77 1018.08 1018.07 1018.26 1017.94 1017.99 1018.00 1017.77 1017.75 1018.29 1018.17 1018.71 1018.41 1018.85 1018.77
1003.44 1004.03 1004.26 1003.91 1003.54 1003.98 1004.27 1004.44 1005.01 1004.94 1004.89 1004.45 1003.90 1004.07 1003.33 1004.45 1006.00 1006.81 1007.78 1008.75 1010.09 1011.55 1012.84 1013.90 1014.52 1015.37 1015.93 1016.60 1017.22 1018.05 1018.51 1018.75 1018.88 1018.85 1018.56 1018.08 1018.25 1018.26 1018.73 1018.59 1018.87 1018.73 1018.69 1018.99
1003.82 1004.20 1004.15 1003.80 1004.43 1004.94 1004.99 1005.44 1005.49 1005.48 1005.00 1004.13 1003.69 1003.61 1002.67 1003.05 1004.09 1005.03 1006.20 1007.93 1009.47 1010.95 1012.46 1013.56 1014.40 1015.23 1015.90 1016.44 1017.17 1018.08 1018.65 1018.98 1019.07 1019.13 1019.23 1019.31 1019.38 1019.34 1019.08 1019.22 1018.80 1018.58 1018.68 1018.83
1004.11 1004.42 1004.49 1004.96 1004.73 1005.39 1005.56 1005.32 1004.92 1004.36 1003.59 1002.77 1002.96 1003.67 1003.36 1004.14 1005.21 1005.69 1006.06 1007.03 1008.87 1010.59 1011.98 1013.23 1014.28 1014.88 1015.63 1016.24 1017.06 1017.87 1018.45 1018.81 1019.09 1019.23 1019.38 1019.56 1019.63 1019.62 1019.70 1019.31 1019.37 1019.16 1018.95 1019.27
1003.30 1003.63 1004.37 1004.95 1004.70 1004.31 1004.89 1005.19 1004.57 1003.86 1003.09 1002.69 1003.76 1003.48 1003.35 1004.95 1006.19 1006.72 1007.35 1007.78 1008.43 1010.15 1011.55 1012.79 1013.91 1014.44 1015.27 1016.16 1016.93 1017.48 1018.15 1018.56 1018.96 1019.23 1019.50 1019.67 1019.58 1019.49 1019.45 1020.13 1019.84 1019.70 1019.41 1019.61
1003.38 1003.43 1004.35 1004.88 1005.03 1005.50 1005.11 1005.17 1005.45 1005.43 1005.20 1004.29 1003.44 1003.16 1004.23 1005.14 1006.04 1007.05 1007.68 1008.11 1008.89 1010.06 1011.12 1012.19 1013.15 1014.22 1015.17 1016.14 1016.88 1017.30 1017.72 1018.32 1018.69 1019.02 1019.35 1019.70 1019.85 1019.93 1020.02 1020.21 1020.12 1019.88 1020.01 1019.71
1004.35 1004.45 1004.65 1005.37 1005.88 1005.92 1005.98 1005.70 1005.85 1005.96 1005.47 1004.61 1003.69 1003.28 1003.82 1005.06 1005.89 1006.97 1007.76 1008.33 1009.18 1010.11 1010.82 1011.70 1012.78 1014.12 1014.94 1015.72 1016.61 1017.15 1017.63 1018.04 1018.45 1018.70 1018.97 1019.26 1019.75 1019.85 1020.00 1020.07 1020.12 1020.21 1020.17 1020.07
1005.42 1005.65 1004.95 1005.56 1005.61 1005.16 1005.65 1005.95 1006.19 1006.19 1005.93 1005.08 1004.51 1004.19 1004.97 1005.52 1005.99 1006.86 1007.72 1008.39 1009.21 1009.93 1010.51 1011.27 1012.48 1013.45 1014.09 1014.79 1015.50 1016.55 1017.11 1017.51 1018.01 1018.49 1018.77 1019.20 1019.41 1019.59 1019.84 1020.06 1020.05 1019.99 1019.95 1019.80
1005.85 1006.07 1005.56 1005.11 1004.95 1005.43 1005.47 1005.49 1005.64 1005.74 1006.13 1005.77 1005.47 1004.87 1005.17 1005.88 1006.28 1007.03 1007.68 1008.16 1008.78 1009.61 1010.22 1010.77 1011.54 1012.37 1013.32 1013.99 1014.67 1015.61 1016.59 1016.90 1017.49 1018.15 1018.62 1018.98 1019.29 1019.57 1019.76 1019.89 1019.93 1019.87 1019.78 1019.70
1005.97 1006.36 1006.05 1005.45 1005.33 1005.83 1005.73 1005.90 1006.20 1006.28 1006.61 1006.45 1005.92 1005.19 1005.45 1006.27 1006.82 1007.21 1007.66 1007.79 1008.49 1009.12 1009.81 1010.39 1011.18 1012.03 1013.00 1013.79 1014.52 1015.19 1016.15 1016.73 1017.01 1017.49 1018.21 1018.88 1019.35 1019.55 1019.71 1020.09 1020.17 1020.10 1020.11 1019.95
1007.13 1006.50 1005.81 1004.97 1004.12 1004.44 1005.17 1005.69 1005.75 1006.12 1006.30 1005.92 1005.27 1004.74 1004.89 1005.76 1006.37 1007.03 1007.80 1008.16 1008.47 1009.03 1009.94 1010.29 1010.31 1011.48 1012.71 1013.61 1014.37 1015.11 1015.80 1016.23 1016.85 1017.42 1017.94 1018.52 1019.20 1019.85 1020.21 1020.45 1020.72 1020.81 1020.67 1020.42
1007.70 1006.79 1006.12 1005.30 1004.90 1004.41 1004.86 1004.77 1005.12 1005.64 1006.01 1005.73 1005.35 1004.87 1004.95 1004.91 1005.66 1006.53 1007.32 1008.25 1009.16 1009.63 1010.20 1010.46 1010.87 1011.69 1012.81 1014.05 1014.77 1015.66 1016.38 1017.01 1017.74 1018.47 1019.19 1019.78 1020.24 1020.81 1021.44 1021.45 1021.26 1021.17 1021.16 1020.86
1007.61 1006.93 1006.47 1005.38 1004.88 1004.72 1004.80 1004.95 1004.83 1005.08 1005.15 1004.78 1004.82 1004.75 1005.06 1005.30 1006.18 1006.73 1007.46 1008.87 1009.68 1010.22 1011.31 1012.21 1012.63 1013.48 1014.13 1014.76 1015.61 1016.31 1016.84 1017.74 1018.27 1019.11 1019.87 1020.67 1021.14 1021.04 1021.32 1021.25 1021.15 1021.05 1020.94 1020.89
1006.98 1007.08 1006.64 1005.43 1005.65 1005.02 1003.69 1004.45 1004.82 1004.74 1004.74 1004.63 1004.26 1004.46 1004.75 1005.84 1006.85 1007.87 1008.39 1009.37 1010.36 1011.65 1012.91 1013.83 1014.24 1014.80 1015.30 1015.77 1016.33 1017.17 1017.60 1018.43 1019.00 1019.69 1020.17 1020.43 1020.55 1020.59 1020.84 1020.95 1020.83 1020.67 1020.49 1020.28
1006.26 1006.87 1006.84 1005.83 1005.95 1004.22 1004.10 1004.44 1004.70 1004.62 1004.56 1004.45 1004.31 1004.75 1005.47 1006.47 1007.42 1008.47 1009.08 1009.99 1011.39 1012.64 1013.68 1014.26 1014.90 1015.47 1015.87 1016.39 1017.13 1017.83 1018.05 1018.85 1019.49 1019.67 1020.13 1020.59 1020.65 1020.73 1020.69 1020.46 1020.61 1020.61 1020.59 1020.50
1006.26 1006.65 1006.42 1006.13 1005.42 1004.41 1004.49 1005.14 1005.39 1005.25 1004.83 1004.86 1004.66 1004.77 1005.82 1007.11 1008.15 1009.01 1009.81 1010.88 1012.01 1013.25 1014.26 1014.83 1015.41 1016.14 1016.66 1017.25 1017.81 1018.19 1018.58 1019.11 1019.45 1019.82 1020.19 1020.36 1020.62 1020.69 1020.61 1020.65 1020.91 1020.80 1020.59 1020.48
1006.13 1007.02 1006.83 1006.10 1005.06 1004.09 1004.67 1004.45 1004.81 1005.19 1004.55 1005.07 1005.09 1005.55 1006.25 1007.51 1008.27 1008.88 1010.81 1011.82 1013.06 1014.09 1014.97 1015.46 1016.01 1016.81 1017.64 1018.17 1018.50 1018.63 1019.07 1019.40 1019.66 1020.12 1020.37 1020.71 1020.68 1020.83 1020.96 1021.12 1021.15 1021.13 1021.04 1020.78
1005.95 1006.27 1005.84 1005.79 1004.97 1004.17 1004.26 1004.95 1005.86 1005.88 1005.21 1005.12 1004.99 1006.05 1006.97 1007.98 1008.93 1009.67 1011.39 1012.66 1013.72 1014.63 1015.27 1015.86 1016.25 1016.97 1018.09 1018.74 1019.07 1019.23 1019.49 1019.71 1020.17 1020.49 1020.47 1020.87 1021.41 1021.65 1021.14 1021.33 1021.38 1021.35 1020.95 1020.82
1005.44 1006.16 1005.43 1004.96 1004.48 1003.55 1004.37 1004.54 1005.53 1005.87 1005.93 1006.08 1006.17 1006.65 1007.61 1008.93 1010.04 1011.09 1012.09 1013.16 1014.16 1015.01 1015.72 1016.17 1016.93 1017.81 1018.70 1019.17 1019.33 1019.45 1019.78 1020.32 1020.51 1020.76 1021.21 1021.47 1021.64 1021.71 1021.59 1021.59 1021.45 1021.29 1021.24 1020.91
1004.21 1004.08 1004.79 1003.98 1003.46 1003.41 1003.86 1004.11 1005.11 1005.87 1006.20 1006.47 1006.74 1007.33 1008.11 1009.51 1010.57 1011.61 1012.61 1013.62 1014.53 1015.20 1015.87 1016.81 1017.64 1018.40 1018.92 1019.29 1019.65 1019.73 1020.37 1020.51 1020.61 1021.11 1021.40 1021.47 1021.46 1021.61 1021.55 1021.61 1021.52 1021.06 1020.67 1020.74
1003.46 1003.83 1003.19 1003.94 1003.28 1003.42 1003.97 1004.60 1005.11 1005.73 1006.14 1006.47 1007.09 1007.53 1008.27 1009.29 1010.74 1011.86 1012.98 1013.83 1014.66 1015.56 1016.48 1017.30 1017.69 1018.06 1019.03 1019.63 1019.96 1020.39 1020.78 1020.96 1021.05 1021.10 1021.21 1021.27 1021.37 1021.61 1021.87 1021.69 1021.47 1021.17 1021.46 1021.89
1003.60 1003.39 1003.43 1003.60 1003.19 1003.44 1003.50 1004.41 1004.97 1005.59 1005.93 1006.41 1006.97 1007.51 1008.42 1009.62 1010.93 1012.15 1013.22 1014.14 1014.83 1015.71 1016.54 1017.05 1017.44 1018.11 1019.16 1019.54 1020.02 1020.45 1020.77 1021.17 1021.08 1021.09 1021.23 1021.24 1021.19 1021.79 1021.70 1021.68 1021.98 1021.99 1022.71 1022.97
1004.87 1004.24 1004.51 1004.23 1003.06 1002.66 1003.65 1004.57 1004.75 1005.48 1005.93 1006.33 1007.04 1007.84 1008.69 1009.81 1011.09 1012.37 1013.51 1014.34 1015.06 1016.02 1016.77 1017.52 1018.13 1018.65 1019.09 1019.49 1020.02 1020.51 1020.81 1021.19 1021.46 1021.30 1020.97 1021.05 1021.43 1021.48 1021.66 1021.56 1021.75 1022.73 1022.76 1022.89
Wind_Speed
13 12 13 16 14 18 11 4 11 8 9 8 13 17 13 10 11 13 11 11 10 9 9 8 8 9 10 9 9 9 9 7 5 5 2 5 4 3 6 5 7 7 7 8
8 13 15 14 8 10 11 8 10 7 3 7 10 13 5 11 13 11 14 13 12 10 10 9 9 9 9 9 9 9 9 8 7 6 5 3 2 5 5 6 6 9 9 10
16 3 4 4 9 12 15 14 9 7 9 11 7 16 15 16 14 11 10 11 12 13 12 10 10 10 9 9 9 9 9 8 8 6 4 5 6 3 5 5 7 8 9 10
11 7 6 11 14 14 14 9 6 2 10 13 12 13 18 19 16 15 13 11 11 11 10 11 11 10 9 10 10 10 8 7 8 7 7 7 6 6 5 5 6 5 8 10
8 6 10 12 12 9 8 5 8 8 11 14 12 9 12 19 14 16 16 16 14 13 11 12 12 11 11 10 10 9 8 8 8 8 7 5 7 4 5 5 4 2 5 9
1 2 9 5 5 3 5 7 8 12 14 14 17 17 12 8 18 20 22 15 14 13 13 12 12 12 10 10 10 9 8 8 7 8 8 8 7 7 6 5 5 4 5 7
10 12 9 5 9 8 10 10 9 13 13 14 5 5 10 9 6 6 3 14 15 14 14 14 14 13 12 11 11 9 8 8 7 7 7 7 7 5 6 7 6 6 6 7
12 14 12 12 14 8 16 14 11 14 10 6 10 6 4 10 5 2 1 8 11 15 15 15 15 13 12 10 10 9 9 8 7 6 6 5 2 4 4 6 6 6 6 5
7 7 10 5 9 7 12 8 9 10 14 13 14 15 11 9 5 1 4 6 10 14 15 16 16 11 12 11 10 9 9 8 7 7 6 5 4 4 5 2 4 5 4 7
4 8 11 10 7 9 12 8 7 11 13 15 13 8 8 11 6 5 6 8 11 13 15 14 14 12 11 13 11 10 9 9 7 7 6 6 5 4 2 1 3 4 4 6
9 7 4 6 11 15 10 13 12 12 11 11 10 7 4 6 1 2 6 9 12 14 14 13 13 16 13 12 14 11 10 9 7 6 5 4 4 3 1 3 5 5 6 7
15 6 12 15 4 4 9 12 10 10 11 12 11 11 9 1 3 6 7 8 10 12 13 13 14 12 12 12 9 12 7 7 7 6 5 4 4 4 4 5 7 8 9 11
10 9 12 17 13 11 13 17 13 13 11 14 15 12 8 7 4 5 9 10 11 13 13 11 9 10 9 8 7 7 8 7 6 7 6 6 5 6 4 5 8 9 11 11
4 12 15 14 16 1 17 17 16 14 13 15 17 17 9 13 8 6 8 6 7 7 11 11 11 10 11 10 8 7 7 7 4 2 3 3 4 6 7 7 8 8 8 9
6 15 18 20 21 21 12 14 17 17 18 20 18 21 18 7 6 10 9 2 5 7 9 7 4 4 7 5 2 2 1 7 9 9 13 10 9 8 6 2 4 6 5 5
9 11 16 20 18 20 17 21 20 20 22 22 20 22 17 11 11 11 4 5 8 3 6 6 8 7 7 7 4 3 3 9 7 5 7 5 5 1 3 4 5 7 7 8
15 10 14 17 18 22 25 17 20 22 22 22 21 17 6 5 4 7 7 5 9 10 11 10 10 9 8 7 5 11 6 9 5 6 5 5 2 5 6 9 9 8 9 9
15 15 13 16 16 26 17 14 15 16 17 17 19 17 12 4 4 5 8 12 12 12 11 11 9 9 8 8 8 8 6 8 6 4 5 4 7 4 7 8 6 7 8 7
11 13 14 14 17 18 16 9 12 15 18 17 17 9 6 4 8 9 10 13 12 11 8 8 9 9 8 8 7 7 5 5 3 5 4 4 8 9 10 10 10 9 9 9
13 12 14 15 19 22 14 12 13 10 17 17 16 11 8 12 11 12 12 11 12 11 10 9 10 10 8 6 5 4 4 1 4 5 8 6 7 10 11 8 9 9 7 9
14 15 19 15 16 21 12 6 6 12 8 4 14 10 12 12 3 19 16 13 11 10 10 8 6 8 7 6 5 4 4 5 5 6 5 11 10 8 8 9 7 8 8 8
16 8 17 15 20 26 13 14 16 4 3 4 6 10 12 12 12 14 14 13 12 11 10 8 6 7 7 5 3 3 4 5 5 7 7 6 6 7 7 7 8 9 9 8
18 15 15 15 11 9 6 14 14 8 7 8 10 11 13 15 14 14 13 12 11 10 7 7 7 7 6 4 5 5 3 5 5 2 3 2 6 6 7 5 8 7 6 8
21 20 14 14 19 16 6 9 9 12 12 10 11 14 14 15 14 13 12 10 9 8 7 7 8 8 6 3 2 5 6 5 4 4 4 5 5 6 5 5 5 8 8 10
13 18 17 18 16 10 17 13 14 14 12 12 12 13 13 14 13 13 11 10 9 10 8 6 4 6 6 4 4 3 2 7 6 3 3 3 3 3 4 4 4 5 7 5
12 15 9 13 18 15 11 13 14 14 14 12 13 13 13 14 14 13 11 9 9 9 8 6 5 4 3 1 3 3 3 3 2 4 1 3 1 3 3 5 2 7 6 8
Wind_Direction
195 228 218 226 233 265 322 229 264 204 88 284 238 235 163 178 205 186 184 178 167 143 134 125 115 111 100 89 82 62 65 49 48 68 49 60 46 106 113 80 33 21 15 12
197 230 251 229 247 251 258 248 238 66 315 257 246 264 172 189 214 205 201 185 169 148 155 140 130 117 106 99 90 79 71 51 40 61 85 80 12 61 28 54 66 19 18 13
242 217 141 242 219 236 234 244 226 254 162 232 250 235 193 212 211 206 202 188 172 175 159 152 144 128 118 103 94 85 76 67 50 23 116 143 164 96 29 47 24 47 19 17
236 107 214 220 228 220 228 230 341 243 234 249 196 272 174 194 200 190 195 206 181 174 160 161 149 138 121 109 102 90 71 70 66 33 65 50 58 35 13 26 53 29 28 21
201 177 206 215 221 203 44 115 227 253 268 280 211 240 289 170 200 202 203 193 193 174 173 168 160 144 132 133 116 105 96 89 77 65 39 71 26 87 56 23 9 58 72 49
253 282 211 244 113 201 51 240 234 251 253 251 242 250 252 200 198 202 185 190 186 173 178 174 153 149 148 137 128 123 116 107 99 91 83 77 70 50 27 31 359 19 36 43
190 201 203 251 192 200 225 233 239 230 227 235 139 213 258 103 57 353 348 172 176 180 180 175 169 169 164 152 148 136 135 126 117 102 95 92 82 65 68 343 42 352 35 26
197 186 185 203 246 239 201 246 265 286 283 297 138 246 206 79 104 19 259 276 175 178 185 182 182 171 169 156 155 150 149 146 138 122 111 102 57 73 84 63 15 26 2 43
280 215 108 180 233 267 262 236 290 300 283 274 286 270 142 134 133 141 234 215 182 181 187 184 179 162 169 166 167 173 157 155 155 140 133 131 115 53 74 68 303 26 11 338
284 271 170 153 232 228 264 335 228 215 256 262 268 280 340 151 180 163 221 197 183 188 188 184 167 179 183 179 171 179 177 173 168 166 162 158 158 168 138 326 345 328 321 321
239 241 216 161 207 238 181 229 241 278 306 305 289 285 60 351 8 183 208 186 190 195 195 183 183 186 192 180 176 181 185 179 179 191 181 183 227 216 252 296 300 302 303 297
225 253 250 225 235 281 306 292 253 240 242 243 259 267 35 237 258 181 216 203 197 197 200 199 193 186 195 193 202 168 197 206 191 200 216 226 243 258 278 288 295 301 315 316
207 214 248 251 185 209 236 240 249 265 272 267 280 284 143 162 235 235 251 233 193 199 213 207 214 203 202 223 215 223 182 222 244 190 207 211 249 256 291 354 330 329 314 315
335 233 248 257 268 350 209 243 241 234 253 260 262 277 228 178 196 221 216 249 272 201 205 219 204 197 205 209 222 213 227 221 200 257 266 275 49 15 329 342 355 3 7 354
236 244 247 251 261 276 269 248 219 237 251 260 277 282 290 307 200 207 218 229 285 254 276 278 213 264 98 104 136 240 332 72 60 42 46 37 39 38 31 27 343 318 326 327
212 252 255 263 256 261 257 269 264 263 268 266 258 267 277 279 277 262 243 238 252 156 112 97 88 82 66 70 90 118 131 84 92 81 83 104 101 208 25 329 315 313 320 313
228 248 248 252 262 265 253 231 260 267 266 268 265 268 293 312 260 278 253 209 133 122 124 123 112 107 106 97 95 68 65 61 82 103 92 92 330 355 340 338 325 315 311 304
218 237 251 260 253 252 276 286 289 277 279 274 260 257 265 296 274 199 166 137 134 135 144 136 119 116 105 86 89 133 140 108 111 125 102 360 340 320 303 321 357 344 348 341
243 240 250 246 251 261 254 187 235 247 263 259 264 264 232 202 164 146 149 141 142 122 112 109 106 98 99 107 117 99 96 100 44 42 350 342 0 340 334 355 357 332 332 340
207 243 258 244 253 251 268 287 319 220 260 253 254 221 207 178 199 166 147 123 126 133 131 129 118 107 100 94 101 108 111 352 66 28 14 343 338 354 345 349 342 346 355 339
220 221 229 239 257 263 261 145 142 222 281 338 212 195 191 187 5 121 140 138 136 131 133 128 120 102 97 90 103 108 155 61 21 358 335 18 23 343 336 14 349 339 328 318
202 222 237 232 250 256 253 182 203 356 117 184 178 178 172 131 132 137 142 141 139 132 136 126 117 104 110 114 119 77 50 24 337 22 23 10 13 353 352 351 332 337 353 332
256 204 224 246 248 251 280 206 200 233 232 188 184 168 175 147 156 154 146 146 149 148 127 120 129 135 140 132 33 348 100 320 0 47 43 354 6 350 7 329 336 310 3 356
234 246 247 248 257 258 209 204 219 198 219 189 194 178 187 157 163 154 151 154 151 135 137 151 178 136 105 92 62 15 14 331 323 329 346 3 33 14 17 355 328 5 17 359
263 272 224 260 243 242 220 221 201 199 215 189 198 181 177 159 152 152 156 156 157 152 162 165 149 120 142 192 135 229 27 339 331 323 0 341 44 57 332 308 13 352 69 36
270 276 196 232 236 217 221 213 213 205 207 197 178 181 168 153 148 155 156 160 150 148 145 143 139 154 124 69 24 12 356 0 316 250 59 27 35 338 319 320 223 84 106 186